Year,Month,Day,Hour,Minute,Value (Times are PST for temperature in C)
2015,06,29,00,00,21.20
2015,06,29,00,01,21.20
2015,06,29,00,02,21.20
2015,06,29,00,03,21.20
2015,06,29,00,04,21.10
2015,06,29,00,05,21.10
2015,06,29,00,06,21.10
2015,06,29,00,07,21.10
2015,06,29,00,08,21.10
2015,06,29,00,09,21.10
2015,06,29,00,10,21.10
2015,06,29,00,11,21.10
2015,06,29,00,12,21.10
2015,06,29,00,13,21.20
2015,06,29,00,14,21.20
2015,06,29,00,15,21.20
2015,06,29,00,16,21.20
2015,06,29,00,17,21.20
2015,06,29,00,18,21.10
2015,06,29,00,19,21.10
2015,06,29,00,20,21.10
2015,06,29,00,21,21.10
2015,06,29,00,22,21.10
2015,06,29,00,23,21.10
2015,06,29,00,24,21.10
2015,06,29,00,25,21.10
2015,06,29,00,26,21.10
2015,06,29,00,27,21.10
2015,06,29,00,28,21.00
2015,06,29,00,29,21.00
2015,06,29,00,30,20.90
2015,06,29,00,31,20.90
2015,06,29,00,32,20.90
2015,06,29,00,33,20.90
2015,06,29,00,34,20.90
2015,06,29,00,35,20.90
2015,06,29,00,36,20.90
2015,06,29,00,37,20.90
2015,06,29,00,38,20.90
2015,06,29,00,39,20.90
2015,06,29,00,40,20.90
2015,06,29,00,41,20.90
2015,06,29,00,42,20.90
2015,06,29,00,43,20.80
2015,06,29,00,44,20.80
2015,06,29,00,45,20.80
2015,06,29,00,46,20.80
2015,06,29,00,47,20.80
2015,06,29,00,48,20.80
2015,06,29,00,49,20.70
2015,06,29,00,50,20.70
2015,06,29,00,51,20.70
2015,06,29,00,52,20.70
2015,06,29,00,53,20.70
2015,06,29,00,54,20.70
2015,06,29,00,55,20.70
2015,06,29,00,56,20.60
2015,06,29,00,57,20.60
2015,06,29,00,58,20.70
2015,06,29,00,59,20.70
2015,06,29,01,00,20.70
2015,06,29,01,01,20.70
2015,06,29,01,02,20.70
2015,06,29,01,03,20.70
2015,06,29,01,04,20.70
2015,06,29,01,05,20.70
2015,06,29,01,06,20.70
2015,06,29,01,07,20.60
2015,06,29,01,08,20.60
2015,06,29,01,09,20.60
2015,06,29,01,10,20.60
2015,06,29,01,11,20.60
2015,06,29,01,12,20.60
2015,06,29,01,13,20.60
2015,06,29,01,14,20.60
2015,06,29,01,15,20.60
2015,06,29,01,16,20.60
2015,06,29,01,17,20.60
2015,06,29,01,18,20.60
2015,06,29,01,19,20.60
2015,06,29,01,20,20.60
2015,06,29,01,21,20.60
2015,06,29,01,22,20.60
2015,06,29,01,23,20.60
2015,06,29,01,24,20.60
2015,06,29,01,25,20.60
2015,06,29,01,26,20.60
2015,06,29,01,27,20.50
2015,06,29,01,28,20.50
2015,06,29,01,29,20.50
2015,06,29,01,30,20.50
2015,06,29,01,31,20.50
2015,06,29,01,32,20.50
2015,06,29,01,33,20.50
2015,06,29,01,34,20.50
2015,06,29,01,35,20.40
2015,06,29,01,36,20.40
2015,06,29,01,37,20.40
2015,06,29,01,38,20.40
2015,06,29,01,39,20.40
2015,06,29,01,40,20.40
2015,06,29,01,41,20.40
2015,06,29,01,42,20.40
2015,06,29,01,43,20.30
2015,06,29,01,44,20.30
2015,06,29,01,45,20.30
2015,06,29,01,46,20.30
2015,06,29,01,47,20.30
2015,06,29,01,48,20.30
2015,06,29,01,49,20.30
2015,06,29,01,50,20.30
2015,06,29,01,51,20.30
2015,06,29,01,52,20.30
2015,06,29,01,53,20.30
2015,06,29,01,54,20.30
2015,06,29,01,55,20.30
2015,06,29,01,56,20.30
2015,06,29,01,57,20.30
2015,06,29,01,58,20.30
2015,06,29,01,59,20.30
2015,06,29,02,00,20.30
2015,06,29,02,01,20.20
2015,06,29,02,02,20.20
2015,06,29,02,03,20.20
2015,06,29,02,04,20.20
2015,06,29,02,05,20.20
2015,06,29,02,06,20.20
2015,06,29,02,07,20.20
2015,06,29,02,08,20.20
2015,06,29,02,09,20.20
2015,06,29,02,10,20.10
2015,06,29,02,11,20.10
2015,06,29,02,12,20.10
2015,06,29,02,13,20.10
2015,06,29,02,14,20.10
2015,06,29,02,15,20.10
2015,06,29,02,16,20.10
2015,06,29,02,17,20.10
2015,06,29,02,18,20.10
2015,06,29,02,19,20.00
2015,06,29,02,20,20.00
2015,06,29,02,21,20.00
2015,06,29,02,22,20.00
2015,06,29,02,23,20.00
2015,06,29,02,24,20.00
2015,06,29,02,25,20.00
2015,06,29,02,26,20.00
2015,06,29,02,27,20.10
2015,06,29,02,28,20.10
2015,06,29,02,29,20.10
2015,06,29,02,30,20.00
2015,06,29,02,31,20.00
2015,06,29,02,32,20.00
2015,06,29,02,33,20.00
2015,06,29,02,34,20.00
2015,06,29,02,35,20.00
2015,06,29,02,36,20.00
2015,06,29,02,37,19.90
2015,06,29,02,38,19.90
2015,06,29,02,39,19.90
2015,06,29,02,40,19.90
2015,06,29,02,41,19.90
2015,06,29,02,42,19.90
2015,06,29,02,43,19.90
2015,06,29,02,44,20.00
2015,06,29,02,45,20.00
2015,06,29,02,46,20.00
2015,06,29,02,47,20.00
2015,06,29,02,48,20.00
2015,06,29,02,49,20.00
2015,06,29,02,50,20.00
2015,06,29,02,51,20.00
2015,06,29,02,52,20.00
2015,06,29,02,53,19.90
2015,06,29,02,54,19.90
2015,06,29,02,55,19.90
2015,06,29,02,56,19.90
2015,06,29,02,57,19.80
2015,06,29,02,58,19.80
2015,06,29,02,59,19.80
2015,06,29,03,00,19.80
2015,06,29,03,01,19.70
2015,06,29,03,02,19.70
2015,06,29,03,03,19.70
2015,06,29,03,04,19.70
2015,06,29,03,05,19.70
2015,06,29,03,06,19.70
2015,06,29,03,07,19.70
2015,06,29,03,08,19.60
2015,06,29,03,09,19.60
2015,06,29,03,10,19.60
2015,06,29,03,11,19.60
2015,06,29,03,12,19.60
2015,06,29,03,13,19.60
2015,06,29,03,14,19.60
2015,06,29,03,15,19.60
2015,06,29,03,16,19.60
2015,06,29,03,17,19.60
2015,06,29,03,18,19.60
2015,06,29,03,19,19.60
2015,06,29,03,20,19.60
2015,06,29,03,21,19.50
2015,06,29,03,22,19.50
2015,06,29,03,23,19.50
2015,06,29,03,24,19.40
2015,06,29,03,25,19.40
2015,06,29,03,26,19.40
2015,06,29,03,27,19.40
2015,06,29,03,28,19.40
2015,06,29,03,29,19.40
2015,06,29,03,30,19.40
2015,06,29,03,31,19.40
2015,06,29,03,32,19.40
2015,06,29,03,33,19.40
2015,06,29,03,34,19.30
2015,06,29,03,35,19.30
2015,06,29,03,36,19.30
2015,06,29,03,37,19.30
2015,06,29,03,38,19.30
2015,06,29,03,39,19.30
2015,06,29,03,40,19.30
2015,06,29,03,41,19.30
2015,06,29,03,42,19.30
2015,06,29,03,43,19.30
2015,06,29,03,44,19.30
2015,06,29,03,45,19.30
2015,06,29,03,46,19.30
2015,06,29,03,47,19.20
2015,06,29,03,48,19.20
2015,06,29,03,49,19.20
2015,06,29,03,50,19.20
2015,06,29,03,51,19.20
2015,06,29,03,52,19.20
2015,06,29,03,53,19.20
2015,06,29,03,54,19.20
2015,06,29,03,55,19.20
2015,06,29,03,56,19.20
2015,06,29,03,57,19.20
2015,06,29,03,58,19.20
2015,06,29,03,59,19.20
2015,06,29,04,00,19.10
2015,06,29,04,01,19.10
2015,06,29,04,02,19.10
2015,06,29,04,03,19.20
2015,06,29,04,04,19.20
2015,06,29,04,05,19.20
2015,06,29,04,06,19.20
2015,06,29,04,07,19.20
2015,06,29,04,08,19.20
2015,06,29,04,09,19.20
2015,06,29,04,10,19.20
2015,06,29,04,11,19.20
2015,06,29,04,12,19.20
2015,06,29,04,13,19.20
2015,06,29,04,14,19.20
2015,06,29,04,15,19.10
2015,06,29,04,16,19.10
2015,06,29,04,17,19.10
2015,06,29,04,18,19.10
2015,06,29,04,19,19.10
2015,06,29,04,20,19.10
2015,06,29,04,21,19.10
2015,06,29,04,22,19.10
2015,06,29,04,23,19.10
2015,06,29,04,24,19.10
2015,06,29,04,25,19.10
2015,06,29,04,26,19.10
2015,06,29,04,27,19.10
2015,06,29,04,28,19.10
2015,06,29,04,29,19.10
2015,06,29,04,30,19.10
2015,06,29,04,31,19.10
2015,06,29,04,32,19.10
2015,06,29,04,33,19.10
2015,06,29,04,34,19.10
2015,06,29,04,35,19.10
2015,06,29,04,36,19.20
2015,06,29,04,37,19.20
2015,06,29,04,38,19.20
2015,06,29,04,39,19.20
2015,06,29,04,40,19.20
2015,06,29,04,41,19.20
2015,06,29,04,42,19.10
2015,06,29,04,43,19.10
2015,06,29,04,44,19.10
2015,06,29,04,45,19.10
2015,06,29,04,46,19.10
2015,06,29,04,47,19.10
2015,06,29,04,48,19.00
2015,06,29,04,49,19.00
2015,06,29,04,50,19.00
2015,06,29,04,51,19.00
2015,06,29,04,52,19.00
2015,06,29,04,53,19.00
2015,06,29,04,54,19.00
2015,06,29,04,55,19.00
2015,06,29,04,56,19.00
2015,06,29,04,57,19.00
2015,06,29,04,58,19.00
2015,06,29,04,59,19.00
2015,06,29,05,00,19.00
2015,06,29,05,01,19.00
2015,06,29,05,02,19.00
2015,06,29,05,03,18.90
2015,06,29,05,04,19.00
2015,06,29,05,05,19.00
2015,06,29,05,06,19.00
2015,06,29,05,07,18.90
2015,06,29,05,08,18.90
2015,06,29,05,09,18.90
2015,06,29,05,10,19.00
2015,06,29,05,11,19.00
2015,06,29,05,12,19.00
2015,06,29,05,13,19.00
2015,06,29,05,14,19.00
2015,06,29,05,15,19.00
2015,06,29,05,16,19.00
2015,06,29,05,17,19.00
2015,06,29,05,18,19.00
2015,06,29,05,19,19.00
2015,06,29,05,20,18.90
2015,06,29,05,21,18.90
2015,06,29,05,22,18.90
2015,06,29,05,23,18.90
2015,06,29,05,24,18.90
2015,06,29,05,25,18.90
2015,06,29,05,26,18.90
2015,06,29,05,27,18.90
2015,06,29,05,28,18.90
2015,06,29,05,29,18.90
2015,06,29,05,30,18.90
2015,06,29,05,31,18.90
2015,06,29,05,32,18.90
2015,06,29,05,33,19.00
2015,06,29,05,34,19.00
2015,06,29,05,35,19.00
2015,06,29,05,36,19.00
2015,06,29,05,37,19.00
2015,06,29,05,38,19.00
2015,06,29,05,39,19.00
2015,06,29,05,40,19.00
2015,06,29,05,41,19.00
2015,06,29,05,42,19.00
2015,06,29,05,43,19.00
2015,06,29,05,44,18.90
2015,06,29,05,45,18.90
2015,06,29,05,46,18.90
2015,06,29,05,47,19.00
2015,06,29,05,48,19.00
2015,06,29,05,49,19.00
2015,06,29,05,50,19.00
2015,06,29,05,51,19.00
2015,06,29,05,52,19.00
2015,06,29,05,53,19.00
2015,06,29,05,54,18.90
2015,06,29,05,55,18.90
2015,06,29,05,56,18.90
2015,06,29,05,57,18.90
2015,06,29,05,58,18.90
2015,06,29,05,59,18.90
2015,06,29,06,00,18.90
2015,06,29,06,01,18.90
2015,06,29,06,02,18.90
2015,06,29,06,03,18.90
2015,06,29,06,04,18.90
2015,06,29,06,05,19.00
2015,06,29,06,06,19.00
2015,06,29,06,07,19.00
2015,06,29,06,08,19.10
2015,06,29,06,09,19.10
2015,06,29,06,10,19.10
2015,06,29,06,11,19.10
2015,06,29,06,12,19.20
2015,06,29,06,13,19.20
2015,06,29,06,14,19.20
2015,06,29,06,15,19.20
2015,06,29,06,16,19.20
2015,06,29,06,17,19.20
2015,06,29,06,18,19.30
2015,06,29,06,19,19.30
2015,06,29,06,20,19.30
2015,06,29,06,21,19.30
2015,06,29,06,22,19.40
2015,06,29,06,23,19.40
2015,06,29,06,24,19.40
2015,06,29,06,25,19.40
2015,06,29,06,26,19.30
2015,06,29,06,27,19.30
2015,06,29,06,28,19.30
2015,06,29,06,29,19.30
2015,06,29,06,30,19.30
2015,06,29,06,31,19.30
2015,06,29,06,32,19.30
2015,06,29,06,33,19.40
2015,06,29,06,34,19.50
2015,06,29,06,35,19.50
2015,06,29,06,36,19.60
2015,06,29,06,37,19.70
2015,06,29,06,38,19.70
2015,06,29,06,39,19.70
2015,06,29,06,40,19.70
2015,06,29,06,41,19.70
2015,06,29,06,42,19.70
2015,06,29,06,43,19.70
2015,06,29,06,44,19.70
2015,06,29,06,45,19.70
2015,06,29,06,46,19.60
2015,06,29,06,47,19.60
2015,06,29,06,48,19.50
2015,06,29,06,49,19.50
2015,06,29,06,50,19.50
2015,06,29,06,51,19.50
2015,06,29,06,52,19.40
2015,06,29,06,53,19.50
2015,06,29,06,54,19.40
2015,06,29,06,55,19.40
2015,06,29,06,56,19.40
2015,06,29,06,57,19.40
2015,06,29,06,58,19.40
2015,06,29,06,59,19.40
2015,06,29,07,00,19.40
2015,06,29,07,01,19.40
2015,06,29,07,02,19.40
2015,06,29,07,03,19.40
2015,06,29,07,04,19.40
2015,06,29,07,05,19.40
2015,06,29,07,06,19.40
2015,06,29,07,07,19.40
2015,06,29,07,08,19.40
2015,06,29,07,09,19.40
2015,06,29,07,10,19.50
2015,06,29,07,11,19.50
2015,06,29,07,12,19.60
2015,06,29,07,13,19.60
2015,06,29,07,14,19.70
2015,06,29,07,15,19.80
2015,06,29,07,16,19.80
2015,06,29,07,17,19.90
2015,06,29,07,18,20.00
2015,06,29,07,19,20.10
2015,06,29,07,20,20.20
2015,06,29,07,21,20.20
2015,06,29,07,22,20.40
2015,06,29,07,23,20.50
2015,06,29,07,24,20.50
2015,06,29,07,25,20.60
2015,06,29,07,26,20.70
2015,06,29,07,27,20.80
2015,06,29,07,28,20.90
2015,06,29,07,29,20.90
2015,06,29,07,30,21.00
2015,06,29,07,31,21.00
2015,06,29,07,32,21.00
2015,06,29,07,33,21.00
2015,06,29,07,34,21.00
2015,06,29,07,35,21.00
2015,06,29,07,36,21.00
2015,06,29,07,37,20.90
2015,06,29,07,38,20.90
2015,06,29,07,39,20.90
2015,06,29,07,40,20.90
2015,06,29,07,41,20.90
2015,06,29,07,42,20.90
2015,06,29,07,43,20.90
2015,06,29,07,44,20.90
2015,06,29,07,45,20.90
2015,06,29,07,46,20.90
2015,06,29,07,47,20.90
2015,06,29,07,48,20.90
2015,06,29,07,49,20.90
2015,06,29,07,50,20.80
2015,06,29,07,51,20.80
2015,06,29,07,52,20.80
2015,06,29,07,53,20.80
2015,06,29,07,54,20.80
2015,06,29,07,55,20.80
2015,06,29,07,56,20.90
2015,06,29,07,57,20.90
2015,06,29,07,58,20.90
2015,06,29,07,59,21.00
2015,06,29,08,00,21.00
2015,06,29,08,01,21.00
2015,06,29,08,02,21.00
2015,06,29,08,03,21.00
2015,06,29,08,04,20.90
2015,06,29,08,05,20.90
2015,06,29,08,06,20.90
2015,06,29,08,07,20.90
2015,06,29,08,08,20.80
2015,06,29,08,09,20.80
2015,06,29,08,10,20.80
2015,06,29,08,11,20.80
2015,06,29,08,12,20.80
2015,06,29,08,13,20.90
2015,06,29,08,14,20.90
2015,06,29,08,15,21.00
2015,06,29,08,16,21.10
2015,06,29,08,17,21.10
2015,06,29,08,18,21.20
2015,06,29,08,19,21.30
2015,06,29,08,20,21.40
2015,06,29,08,21,21.40
2015,06,29,08,22,21.50
2015,06,29,08,23,21.50
2015,06,29,08,24,21.60
2015,06,29,08,25,21.70
2015,06,29,08,26,21.80
2015,06,29,08,27,21.80
2015,06,29,08,28,21.90
2015,06,29,08,29,21.90
2015,06,29,08,30,22.00
2015,06,29,08,31,22.10
2015,06,29,08,32,22.20
2015,06,29,08,33,22.30
2015,06,29,08,34,22.50
2015,06,29,08,35,22.60
2015,06,29,08,36,22.60
2015,06,29,08,37,22.60
2015,06,29,08,38,22.70
2015,06,29,08,39,22.60
2015,06,29,08,40,22.60
2015,06,29,08,41,22.60
2015,06,29,08,42,22.60
2015,06,29,08,43,22.60
2015,06,29,08,44,22.50
2015,06,29,08,45,22.60
2015,06,29,08,46,22.60
2015,06,29,08,47,22.60
2015,06,29,08,48,22.50
2015,06,29,08,49,22.50
2015,06,29,08,50,22.50
2015,06,29,08,51,22.60
2015,06,29,08,52,22.60
2015,06,29,08,53,22.60
2015,06,29,08,54,22.70
2015,06,29,08,55,22.70
2015,06,29,08,56,22.80
2015,06,29,08,57,22.80
2015,06,29,08,58,22.80
2015,06,29,08,59,22.80
2015,06,29,09,00,22.80
2015,06,29,09,01,22.80
2015,06,29,09,02,22.80
2015,06,29,09,03,22.80
2015,06,29,09,04,22.80
2015,06,29,09,05,22.80
2015,06,29,09,06,22.80
2015,06,29,09,07,22.80
2015,06,29,09,08,22.70
2015,06,29,09,09,22.70
2015,06,29,09,10,22.70
2015,06,29,09,11,22.80
2015,06,29,09,12,22.90
2015,06,29,09,13,22.90
2015,06,29,09,14,23.00
2015,06,29,09,15,23.10
2015,06,29,09,16,23.10
2015,06,29,09,17,23.10
2015,06,29,09,18,23.10
2015,06,29,09,19,23.00
2015,06,29,09,20,22.90
2015,06,29,09,21,22.70
2015,06,29,09,22,22.50
2015,06,29,09,23,22.40
2015,06,29,09,24,22.40
2015,06,29,09,25,22.50
2015,06,29,09,26,22.50
2015,06,29,09,27,22.70
2015,06,29,09,28,22.90
2015,06,29,09,29,23.00
2015,06,29,09,30,23.20
2015,06,29,09,31,23.30
2015,06,29,09,32,23.50
2015,06,29,09,33,23.60
2015,06,29,09,34,23.70
2015,06,29,09,35,23.80
2015,06,29,09,36,23.90
2015,06,29,09,37,23.90
2015,06,29,09,38,23.90
2015,06,29,09,39,23.90
2015,06,29,09,40,24.00
2015,06,29,09,41,24.10
2015,06,29,09,42,24.10
2015,06,29,09,43,24.20
2015,06,29,09,44,24.20
2015,06,29,09,45,24.20
2015,06,29,09,46,24.30
2015,06,29,09,47,24.40
2015,06,29,09,48,24.40
2015,06,29,09,49,24.50
2015,06,29,09,50,24.60
2015,06,29,09,51,24.70
2015,06,29,09,52,24.80
2015,06,29,09,53,24.90
2015,06,29,09,54,25.00
2015,06,29,09,55,25.00
2015,06,29,09,56,25.00
2015,06,29,09,57,24.90
2015,06,29,09,58,24.80
2015,06,29,09,59,24.70
2015,06,29,10,00,24.60
2015,06,29,10,01,24.60
2015,06,29,10,02,24.60
2015,06,29,10,03,24.70
2015,06,29,10,04,24.80
2015,06,29,10,05,24.90
2015,06,29,10,06,24.90
2015,06,29,10,07,25.00
2015,06,29,10,08,25.00
2015,06,29,10,09,25.10
2015,06,29,10,10,25.10
2015,06,29,10,11,25.20
2015,06,29,10,12,25.20
2015,06,29,10,13,25.20
2015,06,29,10,14,25.10
2015,06,29,10,15,25.00
2015,06,29,10,16,25.00
2015,06,29,10,17,25.00
2015,06,29,10,18,24.90
2015,06,29,10,19,24.90
2015,06,29,10,20,25.00
2015,06,29,10,21,25.10
2015,06,29,10,22,25.20
2015,06,29,10,23,25.10
2015,06,29,10,24,25.00
2015,06,29,10,25,24.90
2015,06,29,10,26,24.90
2015,06,29,10,27,24.90
2015,06,29,10,28,24.80
2015,06,29,10,29,24.80
2015,06,29,10,30,24.70
2015,06,29,10,31,24.60
2015,06,29,10,32,24.50
2015,06,29,10,33,24.50
2015,06,29,10,34,24.60
2015,06,29,10,35,24.60
2015,06,29,10,36,24.60
2015,06,29,10,37,24.70
2015,06,29,10,38,24.80
2015,06,29,10,39,24.80
2015,06,29,10,40,24.90
2015,06,29,10,41,25.00
2015,06,29,10,42,25.10
2015,06,29,10,43,25.10
2015,06,29,10,44,25.20
2015,06,29,10,45,25.30
2015,06,29,10,46,25.50
2015,06,29,10,47,25.50
2015,06,29,10,48,25.50
2015,06,29,10,49,25.30
2015,06,29,10,50,25.20
2015,06,29,10,51,25.10
2015,06,29,10,52,25.10
2015,06,29,10,53,25.10
2015,06,29,10,54,25.20
2015,06,29,10,55,25.20
2015,06,29,10,56,25.30
2015,06,29,10,57,25.50
2015,06,29,10,58,25.60
2015,06,29,10,59,25.50
2015,06,29,11,00,25.40
2015,06,29,11,01,25.30
2015,06,29,11,02,25.30
2015,06,29,11,03,25.20
2015,06,29,11,04,25.20
2015,06,29,11,05,25.20
2015,06,29,11,06,25.20
2015,06,29,11,07,25.30
2015,06,29,11,08,25.40
2015,06,29,11,09,25.50
2015,06,29,11,10,25.50
2015,06,29,11,11,25.50
2015,06,29,11,12,25.40
2015,06,29,11,13,25.40
2015,06,29,11,14,25.30
2015,06,29,11,15,25.20
2015,06,29,11,16,25.10
2015,06,29,11,17,25.20
2015,06,29,11,18,25.30
2015,06,29,11,19,25.30
2015,06,29,11,20,25.30
2015,06,29,11,21,25.30
2015,06,29,11,22,25.30
2015,06,29,11,23,25.30
2015,06,29,11,24,25.40
2015,06,29,11,25,25.40
2015,06,29,11,26,25.40
2015,06,29,11,27,25.50
2015,06,29,11,28,25.40
2015,06,29,11,29,25.30
2015,06,29,11,30,25.20
2015,06,29,11,31,25.10
2015,06,29,11,32,25.10
2015,06,29,11,33,25.00
2015,06,29,11,34,24.90
2015,06,29,11,35,25.00
2015,06,29,11,36,24.90
2015,06,29,11,37,24.80
2015,06,29,11,38,24.60
2015,06,29,11,39,24.30
2015,06,29,11,40,24.10
2015,06,29,11,41,23.80
2015,06,29,11,42,23.80
2015,06,29,11,43,23.80
2015,06,29,11,44,23.80
2015,06,29,11,45,23.80
2015,06,29,11,46,23.60
2015,06,29,11,47,23.50
2015,06,29,11,48,23.40
2015,06,29,11,49,23.50
2015,06,29,11,50,23.70
2015,06,29,11,51,23.80
2015,06,29,11,52,23.90
2015,06,29,11,53,24.00
2015,06,29,11,54,24.10
2015,06,29,11,55,24.20
2015,06,29,11,56,24.40
2015,06,29,11,57,24.50
2015,06,29,11,58,24.60
2015,06,29,11,59,24.50
2015,06,29,12,00,24.60
2015,06,29,12,01,24.70
2015,06,29,12,02,24.70
2015,06,29,12,03,24.70
2015,06,29,12,04,24.70
2015,06,29,12,05,24.80
2015,06,29,12,06,24.80
2015,06,29,12,07,24.90
2015,06,29,12,08,24.90
2015,06,29,12,09,24.90
2015,06,29,12,10,25.00
2015,06,29,12,11,25.00
2015,06,29,12,12,25.00
2015,06,29,12,13,24.80
2015,06,29,12,14,24.80
2015,06,29,12,15,24.80
2015,06,29,12,16,24.80
2015,06,29,12,17,24.60
2015,06,29,12,18,24.60
2015,06,29,12,19,24.60
2015,06,29,12,20,24.80
2015,06,29,12,21,25.00
2015,06,29,12,22,25.00
2015,06,29,12,23,25.10
2015,06,29,12,24,25.20
2015,06,29,12,25,25.40
2015,06,29,12,26,25.50
2015,06,29,12,27,25.60
2015,06,29,12,28,25.70
2015,06,29,12,29,25.80
2015,06,29,12,30,25.80
2015,06,29,12,31,25.80
2015,06,29,12,32,25.80
2015,06,29,12,33,25.80
2015,06,29,12,34,25.70
2015,06,29,12,35,25.80
2015,06,29,12,36,25.90
2015,06,29,12,37,25.90
2015,06,29,12,38,25.90
2015,06,29,12,39,25.90
2015,06,29,12,40,25.90
2015,06,29,12,41,25.80
2015,06,29,12,42,25.90
2015,06,29,12,43,25.80
2015,06,29,12,44,25.80
2015,06,29,12,45,25.80
2015,06,29,12,46,25.90
2015,06,29,12,47,26.00
2015,06,29,12,48,26.10
2015,06,29,12,49,26.30
2015,06,29,12,50,26.30
2015,06,29,12,51,26.40
2015,06,29,12,52,26.40
2015,06,29,12,53,26.30
2015,06,29,12,54,26.10
2015,06,29,12,55,26.00
2015,06,29,12,56,25.90
2015,06,29,12,57,25.80
2015,06,29,12,58,25.60
2015,06,29,12,59,25.50
2015,06,29,13,00,25.50
2015,06,29,13,01,25.50
2015,06,29,13,02,25.40
2015,06,29,13,03,25.50
2015,06,29,13,04,25.50
2015,06,29,13,05,25.60
2015,06,29,13,06,25.70
2015,06,29,13,07,25.70
2015,06,29,13,08,25.80
2015,06,29,13,09,25.80
2015,06,29,13,10,25.90
2015,06,29,13,11,26.00
2015,06,29,13,12,26.10
2015,06,29,13,13,26.10
2015,06,29,13,14,26.10
2015,06,29,13,15,26.00
2015,06,29,13,16,25.90
2015,06,29,13,17,25.80
2015,06,29,13,18,25.80
2015,06,29,13,19,25.80
2015,06,29,13,20,25.80
2015,06,29,13,21,25.80
2015,06,29,13,22,25.80
2015,06,29,13,23,25.70
2015,06,29,13,24,25.60
2015,06,29,13,25,25.60
2015,06,29,13,26,25.60
2015,06,29,13,27,25.70
2015,06,29,13,28,25.80
2015,06,29,13,29,25.90
2015,06,29,13,30,26.00
2015,06,29,13,31,26.20
2015,06,29,13,32,26.30
2015,06,29,13,33,26.40
2015,06,29,13,34,26.50
2015,06,29,13,35,26.70
2015,06,29,13,36,26.80
2015,06,29,13,37,26.80
2015,06,29,13,38,27.00
2015,06,29,13,39,27.00
2015,06,29,13,40,27.00
2015,06,29,13,41,27.10
2015,06,29,13,42,27.20
2015,06,29,13,43,27.30
2015,06,29,13,44,27.20
2015,06,29,13,45,27.30
2015,06,29,13,46,27.30
2015,06,29,13,47,27.30
2015,06,29,13,48,27.30
2015,06,29,13,49,27.30
2015,06,29,13,50,27.30
2015,06,29,13,51,27.30
2015,06,29,13,52,27.30
2015,06,29,13,53,27.20
2015,06,29,13,54,27.10
2015,06,29,13,55,27.00
2015,06,29,13,56,26.90
2015,06,29,13,57,26.90
2015,06,29,13,58,26.90
2015,06,29,13,59,26.90
2015,06,29,14,00,26.90
2015,06,29,14,01,26.80
2015,06,29,14,02,26.80
2015,06,29,14,03,26.80
2015,06,29,14,04,26.80
2015,06,29,14,05,26.80
2015,06,29,14,06,26.80
2015,06,29,14,07,26.80
2015,06,29,14,08,26.90
2015,06,29,14,09,26.90
2015,06,29,14,10,26.90
2015,06,29,14,11,26.80
2015,06,29,14,12,26.70
2015,06,29,14,13,26.60
2015,06,29,14,14,26.60
2015,06,29,14,15,26.60
2015,06,29,14,16,26.70
2015,06,29,14,17,26.80
2015,06,29,14,18,26.90
2015,06,29,14,19,26.90
2015,06,29,14,20,26.90
2015,06,29,14,21,26.90
2015,06,29,14,22,26.90
2015,06,29,14,23,26.90
2015,06,29,14,24,26.90
2015,06,29,14,25,26.90
2015,06,29,14,26,27.00
2015,06,29,14,27,27.00
2015,06,29,14,28,27.10
2015,06,29,14,29,27.10
2015,06,29,14,30,27.20
2015,06,29,14,31,27.20
2015,06,29,14,32,27.20
2015,06,29,14,33,27.30
2015,06,29,14,34,27.40
2015,06,29,14,35,27.40
2015,06,29,14,36,27.40
2015,06,29,14,37,27.50
2015,06,29,14,38,27.50
2015,06,29,14,39,27.10
2015,06,29,14,40,26.90
2015,06,29,14,41,26.80
2015,06,29,14,42,26.60
2015,06,29,14,43,26.50
2015,06,29,14,44,26.50
2015,06,29,14,45,26.40
2015,06,29,14,46,26.40
2015,06,29,14,47,26.40
2015,06,29,14,48,26.40
2015,06,29,14,49,26.30
2015,06,29,14,50,26.30
2015,06,29,14,51,26.30
2015,06,29,14,52,26.30
2015,06,29,14,53,26.30
2015,06,29,14,54,26.40
2015,06,29,14,55,26.30
2015,06,29,14,56,26.20
2015,06,29,14,57,26.10
2015,06,29,14,58,26.10
2015,06,29,14,59,26.10
2015,06,29,15,00,26.20
2015,06,29,15,01,26.20
2015,06,29,15,02,26.30
2015,06,29,15,03,26.30
2015,06,29,15,04,26.30
2015,06,29,15,05,26.30
2015,06,29,15,06,26.40
2015,06,29,15,07,26.40
2015,06,29,15,08,26.40
2015,06,29,15,09,26.40
2015,06,29,15,10,26.40
2015,06,29,15,11,26.40
2015,06,29,15,12,26.30
2015,06,29,15,13,26.30
2015,06,29,15,14,26.30
2015,06,29,15,15,26.30
2015,06,29,15,16,26.40
2015,06,29,15,17,26.60
2015,06,29,15,18,26.70
2015,06,29,15,19,26.80
2015,06,29,15,20,26.90
2015,06,29,15,21,27.00
2015,06,29,15,22,27.10
2015,06,29,15,23,27.20
2015,06,29,15,24,27.20
2015,06,29,15,25,27.30
2015,06,29,15,26,27.30
2015,06,29,15,27,27.40
2015,06,29,15,28,27.50
2015,06,29,15,29,27.50
2015,06,29,15,30,27.40
2015,06,29,15,31,27.40
2015,06,29,15,32,27.50
2015,06,29,15,33,27.60
2015,06,29,15,34,27.60
2015,06,29,15,35,27.70
2015,06,29,15,36,27.60
2015,06,29,15,37,27.50
2015,06,29,15,38,27.40
2015,06,29,15,39,27.30
2015,06,29,15,40,27.30
2015,06,29,15,41,27.20
2015,06,29,15,42,27.20
2015,06,29,15,43,27.20
2015,06,29,15,44,27.10
2015,06,29,15,45,27.10
2015,06,29,15,46,27.10
2015,06,29,15,47,27.00
2015,06,29,15,48,26.90
2015,06,29,15,49,26.90
2015,06,29,15,50,26.80
2015,06,29,15,51,26.80
2015,06,29,15,52,26.70
2015,06,29,15,53,26.60
2015,06,29,15,54,26.50
2015,06,29,15,55,26.50
2015,06,29,15,56,26.50
2015,06,29,15,57,26.40
2015,06,29,15,58,26.40
2015,06,29,15,59,26.40
2015,06,29,16,00,26.40
2015,06,29,16,01,26.50
2015,06,29,16,02,26.40
2015,06,29,16,03,26.50
2015,06,29,16,04,26.50
2015,06,29,16,05,26.50
2015,06,29,16,06,26.40
2015,06,29,16,07,26.40
2015,06,29,16,08,26.40
2015,06,29,16,09,26.40
2015,06,29,16,10,26.50
2015,06,29,16,11,26.50
2015,06,29,16,12,26.50
2015,06,29,16,13,26.40
2015,06,29,16,14,26.40
2015,06,29,16,15,26.30
2015,06,29,16,16,26.30
2015,06,29,16,17,26.30
2015,06,29,16,18,26.20
2015,06,29,16,19,26.10
2015,06,29,16,20,26.00
2015,06,29,16,21,25.90
2015,06,29,16,22,25.90
2015,06,29,16,23,25.90
2015,06,29,16,24,25.80
2015,06,29,16,25,25.80
2015,06,29,16,26,25.90
2015,06,29,16,27,26.00
2015,06,29,16,28,26.20
2015,06,29,16,29,26.40
2015,06,29,16,30,26.50
2015,06,29,16,31,26.60
2015,06,29,16,32,26.60
2015,06,29,16,33,26.70
2015,06,29,16,34,26.80
2015,06,29,16,35,26.80
2015,06,29,16,36,26.80
2015,06,29,16,37,26.90
2015,06,29,16,38,27.00
2015,06,29,16,39,27.10
2015,06,29,16,40,27.30
2015,06,29,16,41,27.40
2015,06,29,16,42,27.50
2015,06,29,16,43,27.60
2015,06,29,16,44,27.60
2015,06,29,16,45,27.60
2015,06,29,16,46,27.60
2015,06,29,16,47,27.60
2015,06,29,16,48,27.70
2015,06,29,16,49,27.70
2015,06,29,16,50,27.80
2015,06,29,16,51,27.80
2015,06,29,16,52,28.00
2015,06,29,16,53,28.00
2015,06,29,16,54,28.10
2015,06,29,16,55,28.20
2015,06,29,16,56,28.20
2015,06,29,16,57,28.20
2015,06,29,16,58,28.10
2015,06,29,16,59,28.00
2015,06,29,17,00,27.90
2015,06,29,17,01,27.80
2015,06,29,17,02,27.90
2015,06,29,17,03,27.80
2015,06,29,17,04,27.80
2015,06,29,17,05,27.60
2015,06,29,17,06,27.50
2015,06,29,17,07,27.50
2015,06,29,17,08,27.40
2015,06,29,17,09,27.40
2015,06,29,17,10,27.30
2015,06,29,17,11,27.20
2015,06,29,17,12,27.10
2015,06,29,17,13,26.90
2015,06,29,17,14,26.70
2015,06,29,17,15,26.50
2015,06,29,17,16,26.40
2015,06,29,17,17,26.30
2015,06,29,17,18,26.20
2015,06,29,17,19,26.20